Sauk Centre, MN

8:41 PM CST on December 06, 2019 (GMT -0600)
Sauk Centre

Weather History for KD39 - October, 2019

Change the Weather History Date:

Tuesday, October 8, 2019

  Actual Average (KGHW) Record (KGHW)
Temperature  
Mean Temperature 56 °F -  
Max Temperature 68 °F 60 °F 85 °F (1966)
Min Temperature 45 °F 38 °F 20 °F (1985)
Degree Days  
Heating Degree Days 8    
Growing Degree Days 6 (Base 50)    
Moisture  
Dew Point 43 °F    
Average Humidity 61    
Maximum Humidity 82    
Minimum Humidity 43    
Precipitation  
Precipitation 0.03 in - - ()
Sea Level Pressure  
Sea Level Pressure 29.86 in    
Wind  
Wind Speed 12 mph ()    
Max Wind Speed 25 mph    
Max Gust Speed 34 mph    
Visibility 10.0 miles    
Events      
Averages and records for this station are not official NWS values.
T = Trace of Precipitation, MM = Missing Value Source: Averaged Metar Reports

Daily Weather History Graph

Daily Weather History Graph

Search for Another Location

Airport or City:

Astronomy

Oct. 08, 2019 Rise Set
Actual Time 7:26 AM CDT 6:47 PM CDT
Civil Twilight 6:57 AM CDT 7:16 PM CDT
Nautical Twilight 6:22 AM CDT 7:51 PM CDT
Astronomical Twilight 5:47 AM CDT 8:25 PM CDT
Moon 5:04 PM CDT (10/8) 1:56 AM CDT (10/8)
Length of Visible Light 12h 19m
Length of Day
11h 20m
Waxing Gibbous, 78% of the Moon is Illuminated
Oct 8
Waxing Gibbous
Oct 13
Full
Oct 21
Last Quarter
Oct 27
New
Nov 4
First Quarter

Hourly Weather History & Observations

Time (CDT) Temp. Windchill Dew Point Humidity Pressure Visibility Wind Dir Wind Speed Gust Speed Precip Events Conditions
12:15 AM 45.5 °F 41.3 °F 38.7 °F 77% 29.97 in 10.0 mi SE 8.1 mph - N/A   Clear
12:16 AM 45.5 °F 41.3 °F 38.7 °F 77% 29.97 in 10.0 mi SE 8.1 mph - N/A   Clear
12:35 AM 46.4 °F 42.4 °F 38.8 °F 75% 29.96 in 10.0 mi ESE 8.1 mph - N/A   Clear
12:58 AM 47.1 °F - 39.2 °F 74% 29.95 in 10.0 mi SSE 6.9 mph - N/A   Clear
1:16 AM 46.2 °F 42.2 °F 39.2 °F 76% 29.95 in 10.0 mi SSE 8.1 mph - N/A   Clear
1:36 AM 46.0 °F 41.4 °F 39.6 °F 78% 29.94 in 10.0 mi SSE 9.2 mph - N/A   Clear
1:55 AM 45.9 °F 41.7 °F 39.6 °F 79% 29.94 in 10.0 mi SSE 8.1 mph - N/A   Clear
1:56 AM 46.0 °F 41.9 °F 39.6 °F 78% 29.94 in 10.0 mi SSE 8.1 mph - N/A   Clear
2:15 AM 45.9 °F 41.7 °F 39.7 °F 79% 29.94 in 10.0 mi SSE 8.1 mph - N/A   Clear
2:37 AM 45.0 °F 41.2 °F 39.7 °F 82% 29.93 in 10.0 mi SSE 6.9 mph - N/A   Clear
2:56 AM 45.5 °F 41.8 °F 39.9 °F 81% 29.92 in 10.0 mi SE 6.9 mph - N/A   Clear
3:15 AM 45.3 °F 41.1 °F 40.1 °F 82% 29.91 in 10.0 mi SE 8.1 mph - N/A   Clear
3:16 AM 45.5 °F 41.3 °F 40.3 °F 82% 29.91 in 10.0 mi SE 8.1 mph - N/A   Clear
3:36 AM 46.4 °F 41.9 °F 40.8 °F 81% 29.91 in 10.0 mi SSE 9.2 mph - N/A   Clear
3:58 AM 47.5 °F - 41.2 °F 79% 29.90 in 10.0 mi SSE 9.2 mph - N/A   Clear
4:16 AM 48.9 °F - 41.4 °F 75% 29.90 in 10.0 mi SSE 9.2 mph - N/A   Clear
4:35 AM 50.4 °F - 41.2 °F 71% 29.90 in 10.0 mi South 10.4 mph - N/A   Clear
4:36 AM 50.4 °F - 41.4 °F 71% 29.90 in 10.0 mi South 11.5 mph - N/A   Clear
4:55 AM 51.1 °F - 41.0 °F 68% 29.89 in 10.0 mi South 11.5 mph - N/A   Clear
4:56 AM 51.1 °F - 41.0 °F 68% 29.89 in 10.0 mi South 12.7 mph - N/A   Clear
5:19 AM 51.8 °F - 40.5 °F 65% 29.89 in 10.0 mi South 12.7 mph - N/A   Clear
5:36 AM 51.8 °F - 40.5 °F 65% 29.89 in 10.0 mi South 13.8 mph 20.7 mph N/A   Clear
5:56 AM 52.5 °F - 40.1 °F 63% 29.89 in 10.0 mi South 13.8 mph - N/A   Clear
6:15 AM 52.7 °F - 40.1 °F 62% 29.89 in 10.0 mi South 15.0 mph - N/A   Clear
6:16 AM 52.5 °F - 40.1 °F 63% 29.89 in 10.0 mi South 13.8 mph - N/A   Clear
6:35 AM 52.0 °F - 39.7 °F 63% 29.89 in 10.0 mi South 13.8 mph - N/A   Clear
6:39 AM 52.2 °F - 39.7 °F 63% 29.89 in 10.0 mi South 12.7 mph - N/A   Clear
6:57 AM 51.1 °F - 39.9 °F 66% 29.89 in 10.0 mi South 11.5 mph - N/A   Clear
7:15 AM 51.3 °F - 39.9 °F 65% 29.89 in 10.0 mi South 13.8 mph - N/A   Clear
7:35 AM 49.8 °F - 40.1 °F 69% 29.89 in 10.0 mi SSE 10.4 mph - N/A   Clear
7:36 AM 49.6 °F - 40.1 °F 70% 29.89 in 10.0 mi SSE 10.4 mph - N/A   Clear
7:55 AM 50.4 °F - 40.3 °F 68% 29.88 in 10.0 mi South 11.5 mph 17.3 mph N/A   Clear
7:56 AM 50.4 °F - 40.3 °F 68% 29.88 in 10.0 mi South 10.4 mph 17.3 mph N/A   Clear
8:19 AM 51.8 °F - 40.6 °F 66% 29.88 in 10.0 mi South 12.7 mph - N/A   Clear
8:36 AM 52.9 °F - 40.6 °F 63% 29.88 in 10.0 mi South 15.0 mph 20.7 mph N/A   Clear
8:56 AM 54.3 °F - 40.5 °F 59% 29.88 in 10.0 mi South 16.1 mph 21.9 mph N/A   Clear
9:15 AM 55.2 °F - 41.0 °F 59% 29.88 in 10.0 mi South 18.4 mph 24.2 mph N/A   Clear
9:35 AM 57.6 °F - 41.2 °F 54% 29.87 in 10.0 mi South 21.9 mph 26.5 mph N/A   Clear
9:39 AM 57.9 °F - 41.2 °F 54% 29.88 in 10.0 mi South 19.6 mph 26.5 mph N/A   Clear
9:58 AM - - - N/A% - - North - - N/A   Unknown
10:15 AM - - - N/A% - - North - - N/A   Unknown
10:36 AM 61.0 °F - 42.3 °F 50% 29.87 in 10.0 mi South 23.0 mph 27.6 mph 0.03 in   Clear
10:55 AM 61.0 °F - 42.1 °F 50% 29.86 in 10.0 mi South 21.9 mph 27.6 mph 0.03 in   Clear
10:56 AM 61.0 °F - 42.1 °F 50% 29.86 in 10.0 mi South 21.9 mph 27.6 mph 0.03 in   Clear
11:18 AM 61.9 °F - 42.1 °F 48% 29.85 in 10.0 mi South 23.0 mph 32.2 mph N/A   Clear
11:36 AM 63.3 °F - 43.9 °F 49% 29.85 in 10.0 mi South 24.2 mph 29.9 mph N/A   Clear
11:56 AM 63.0 °F - 43.7 °F 49% 29.85 in 10.0 mi South 25.3 mph 33.4 mph N/A   Clear
12:15 PM 65.3 °F - 44.6 °F 47% 29.84 in 10.0 mi South 23.0 mph 29.9 mph N/A   Clear
12:16 PM 65.1 °F - 44.4 °F 47% 29.84 in 10.0 mi South 23.0 mph 29.9 mph N/A   Clear
12:35 PM 64.9 °F - 42.6 °F 44% 29.84 in 10.0 mi South 20.7 mph 34.5 mph N/A   Clear
12:39 PM 64.9 °F - 43.7 °F 46% 29.84 in 10.0 mi South 23.0 mph 34.5 mph N/A   Clear
12:57 PM 65.8 °F - 44.6 °F 46% 29.84 in 10.0 mi South 21.9 mph 27.6 mph N/A   Clear
1:15 PM 64.8 °F - 43.7 °F 46% 29.82 in 10.0 mi SSE 20.7 mph 28.8 mph N/A   Clear
1:35 PM 65.8 °F - 44.4 °F 46% 29.82 in 10.0 mi SSE 25.3 mph 31.1 mph N/A   Clear
1:36 PM 66.0 °F - 44.4 °F 46% 29.82 in 10.0 mi South 21.9 mph 31.1 mph N/A   Clear
1:55 PM 67.5 °F - 45.0 °F 44% 29.81 in 10.0 mi SSE 24.2 mph 32.2 mph N/A   Clear
2:18 PM 67.8 °F - 45.0 °F 44% 29.81 in 10.0 mi SSE 20.7 mph 31.1 mph N/A   Clear
2:56 PM 68.2 °F - 44.8 °F 43% 29.80 in 10.0 mi South 25.3 mph 31.1 mph N/A   Clear
3:15 PM 66.9 °F - 44.8 °F 45% 29.80 in 10.0 mi South 20.7 mph 31.1 mph N/A   Clear
3:35 PM 68.5 °F - 45.5 °F 44% 29.80 in 10.0 mi South 25.3 mph 33.4 mph N/A   Clear
3:39 PM 68.5 °F - 45.0 °F 43% 29.80 in 10.0 mi South 19.6 mph 31.1 mph N/A   Clear
3:57 PM 68.5 °F - 45.5 °F 44% 29.80 in 10.0 mi South 19.6 mph 31.1 mph N/A   Clear
4:15 PM 68.7 °F - 45.3 °F 43% 29.79 in 10.0 mi South 23.0 mph 29.9 mph N/A   Clear
4:35 PM 68.5 °F - 45.0 °F 43% 29.79 in 10.0 mi South 23.0 mph 32.2 mph N/A   Clear
4:36 PM 68.5 °F - 45.0 °F 43% 29.79 in 10.0 mi South 23.0 mph 32.2 mph N/A   Clear
4:55 PM 68.4 °F - 45.1 °F 43% 29.79 in 10.0 mi South 23.0 mph 33.4 mph N/A   Clear
5:18 PM 67.5 °F - 45.1 °F 45% 29.79 in 10.0 mi South 17.3 mph 26.5 mph N/A   Clear
5:37 PM 67.1 °F - 45.5 °F 46% 29.79 in 10.0 mi SSE 16.1 mph 25.3 mph N/A   Clear
5:56 PM 66.0 °F - 45.3 °F 47% 29.79 in 10.0 mi SSE 15.0 mph 21.9 mph N/A   Clear
6:15 PM 64.0 °F - 46.0 °F 52% 29.79 in 10.0 mi SSE 10.4 mph 20.7 mph N/A   Clear
6:16 PM 63.9 °F - 46.0 °F 52% 29.79 in 10.0 mi SSE 12.7 mph 20.7 mph N/A   Clear
6:35 PM 61.7 °F - 45.7 °F 56% 29.79 in 10.0 mi SSE 11.5 mph - N/A   Clear
6:57 PM 59.9 °F - 45.9 °F 60% 29.80 in 10.0 mi SSE 9.2 mph - N/A   Clear
7:16 PM 58.6 °F - 45.7 °F 62% 29.80 in 10.0 mi SE 9.2 mph - N/A   Clear
7:35 PM 57.6 °F - 45.5 °F 64% 29.81 in 10.0 mi SE 9.2 mph - N/A   Clear
7:36 PM 57.4 °F - 45.5 °F 65% 29.81 in 10.0 mi SE 9.2 mph - N/A   Clear
7:55 PM 57.9 °F - 45.3 °F 63% 29.81 in 10.0 mi SE 9.2 mph - N/A   Clear
7:56 PM 57.9 °F - 45.3 °F 63% 29.81 in 10.0 mi SE 9.2 mph - N/A   Clear
8:18 PM 57.2 °F - 45.1 °F 64% 29.81 in 10.0 mi SE 10.4 mph - N/A   Clear
8:36 PM 57.2 °F - 44.8 °F 63% 29.82 in 10.0 mi SSE 11.5 mph - N/A   Clear
8:55 PM 57.0 °F - 44.8 °F 64% 29.82 in 10.0 mi SE 10.4 mph - N/A   Clear
9:15 PM 56.7 °F - 44.6 °F 64% 29.82 in 10.0 mi SE 10.4 mph - N/A   Clear
9:16 PM 56.7 °F - 44.6 °F 64% 29.82 in 10.0 mi SE 9.2 mph - N/A   Clear
9:35 PM 55.6 °F - 44.6 °F 67% 29.83 in 10.0 mi SSE 10.4 mph - N/A   Clear
9:40 PM 55.6 °F - 44.6 °F 67% 29.83 in 10.0 mi SSE 10.4 mph - N/A   Clear
9:57 PM 54.9 °F - 44.6 °F 68% 29.83 in 10.0 mi SSE 10.4 mph - N/A   Clear
10:15 PM 54.5 °F - 44.2 °F 68% 29.84 in 10.0 mi SE 8.1 mph - N/A   Clear
10:35 PM 54.0 °F - 44.1 °F 69% 29.84 in 10.0 mi SE 8.1 mph - N/A   Clear
10:36 PM 54.0 °F - 44.1 °F 69% 29.84 in 10.0 mi SE 8.1 mph - N/A   Clear
10:55 PM 53.2 °F - 43.9 °F 71% 29.84 in 10.0 mi SE 9.2 mph - N/A   Clear
10:56 PM 53.4 °F - 43.9 °F 70% 29.84 in 10.0 mi SE 8.1 mph - N/A   Clear
11:18 PM 52.9 °F - 43.7 °F 71% 29.83 in 10.0 mi SE 9.2 mph - N/A   Clear
11:36 PM 53.6 °F - 43.3 °F 68% 29.84 in 10.0 mi SSE 10.4 mph - N/A   Clear
11:55 PM 52.9 °F - 43.3 °F 70% 29.83 in 10.0 mi SSE 9.2 mph - N/A   Clear
11:56 PM 52.7 °F - 43.3 °F 70% 29.83 in 10.0 mi SSE 8.1 mph - N/A   Clear